Theta_e
293 293 294 296 297 296 296 296 297 297 297 296 296 295 294 294 294 294 294 294 294 295 295 295 295 295 296 297 301 303 305 307 308 308 307 306 303 302 303 304 306 307 307 307 308 308 308 307 307 307 308 310 310 310 309 308 308 308 309 308 308 307 306 306 306 306 306 307 307
292 293 293 295 296 296 296 296 296 296 296 296 296 295 295 294 294 294 294 293 294 294 295 295 295 294 293 293 297 300 301 303 305 306 307 306 305 304 304 304 304 305 306 307 308 308 308 306 305 305 307 311 311 310 310 310 309 308 308 307 307 306 306 307 306 307 307 307 306
291 292 292 293 293 294 295 295 295 295 295 295 296 296 295 295 294 294 294 294 293 293 293 295 294 293 293 292 294 296 298 298 300 303 305 305 305 305 305 303 302 304 306 307 308 308 308 305 304 305 308 310 309 307 307 309 310 310 308 307 306 306 306 307 307 307 307 307 306
291 291 291 292 292 293 294 295 295 295 295 296 296 296 295 295 294 294 293 292 292 292 293 293 293 294 294 294 293 294 295 298 299 301 303 303 304 305 304 302 302 303 305 307 307 308 308 304 305 305 305 308 308 307 307 307 309 309 307 307 306 306 306 306 307 307 307 307 305
290 290 291 291 292 292 294 295 295 295 295 296 295 295 295 294 294 293 293 293 293 293 293 292 292 293 294 295 294 294 294 297 300 301 301 303 303 304 304 301 301 303 305 307 307 307 306 304 305 303 303 306 308 307 305 303 307 308 307 306 306 305 305 305 306 307 307 308 306
290 290 290 291 292 292 293 294 294 295 295 295 294 294 294 294 294 293 293 293 293 293 293 293 294 294 294 293 293 293 293 294 295 297 300 303 302 302 302 301 301 303 305 306 307 307 305 303 304 303 302 304 306 304 302 304 306 306 306 305 304 304 304 304 305 306 307 307 306
289 290 290 291 291 292 292 293 293 294 294 294 293 293 293 293 293 293 293 293 293 293 294 296 296 295 294 292 293 293 294 294 295 296 297 299 300 301 301 302 301 302 304 305 307 307 306 304 305 303 303 307 307 306 305 308 307 306 305 304 304 304 303 303 305 306 306 306 306
290 290 290 291 291 292 292 292 293 293 294 294 293 293 293 293 293 293 293 293 294 294 295 296 297 297 297 296 296 295 294 293 294 295 296 296 296 297 299 300 300 301 303 305 306 306 306 305 303 302 303 307 307 307 307 308 307 306 305 304 304 303 303 303 305 306 305 305 305
289 290 290 290 291 291 292 292 292 293 293 293 294 294 294 294 294 294 293 293 294 295 296 296 297 298 299 299 299 298 296 295 296 296 296 296 295 295 295 297 299 300 302 304 305 306 305 303 301 302 304 307 307 307 307 307 305 305 304 304 304 305 304 303 304 305 305 305 304
289 289 290 290 290 291 291 292 292 292 292 293 293 294 294 296 295 294 294 294 295 296 296 296 296 296 296 296 297 297 297 296 294 292 291 292 291 292 293 295 298 299 301 303 304 305 305 302 300 301 303 305 307 307 306 305 304 303 303 303 304 304 304 302 303 303 305 305 304
289 289 289 290 290 291 291 291 291 292 292 292 292 292 293 293 293 293 294 295 295 295 295 296 294 294 294 294 295 296 296 295 294 293 292 291 291 291 292 294 297 299 300 302 303 304 304 301 299 300 302 304 306 306 305 304 303 302 302 300 303 303 303 302 302 303 304 305 303
288 289 289 290 290 291 291 291 291 291 291 291 292 291 292 291 292 292 294 294 295 295 296 296 294 293 293 293 292 293 294 294 295 295 293 291 291 291 292 294 296 298 300 301 302 303 303 301 298 299 302 303 306 306 305 304 302 302 301 300 303 303 302 302 302 303 304 304 303
287 288 289 290 290 290 290 290 291 291 291 291 291 291 291 291 292 293 293 293 295 296 297 296 294 293 292 292 291 291 292 293 293 293 293 292 291 291 292 293 295 297 299 301 302 303 303 300 297 298 301 302 306 306 305 304 302 301 301 300 303 302 301 301 302 303 304 303 302
287 288 288 289 289 290 290 290 290 291 291 291 291 291 291 291 292 293 293 294 294 296 296 295 294 293 293 292 292 291 291 292 292 292 292 292 291 291 292 293 295 297 299 300 301 302 301 298 296 298 301 302 305 306 304 304 302 301 302 302 302 301 301 301 302 302 303 302 302
286 287 288 288 289 289 289 290 290 290 291 290 291 291 291 291 292 293 293 293 294 295 295 294 294 293 293 292 292 292 292 292 292 292 292 292 292 292 293 294 296 297 299 299 300 301 301 298 296 298 301 302 305 305 304 304 303 303 302 302 301 301 301 301 301 302 302 302 301
285 286 287 288 288 288 289 289 290 290 291 291 291 291 291 291 292 292 293 293 293 294 295 295 294 293 292 292 293 293 293 293 292 292 292 293 294 294 294 295 296 297 298 299 300 300 300 298 296 297 300 301 303 304 304 304 304 303 303 302 301 301 301 301 301 301 301 301 301
285 285 286 287 287 288 288 289 289 290 290 291 291 291 291 291 291 292 292 293 293 294 295 296 296 295 294 294 294 295 295 295 294 293 293 294 294 294 295 295 296 297 298 299 299 299 299 298 297 298 300 302 303 304 304 304 303 303 302 302 301 300 300 300 300 301 301 301 300
284 285 286 286 286 287 288 289 289 290 290 290 291 291 291 291 291 291 291 292 292 293 294 296 296 296 296 295 295 295 295 295 295 294 294 294 294 294 294 295 296 297 298 299 298 299 299 298 298 299 301 302 303 304 305 303 303 302 302 301 301 300 300 300 301 301 301 300 300
284 284 285 285 286 287 287 288 289 289 290 290 291 291 291 291 290 290 290 291 292 293 294 295 296 296 296 296 295 295 296 295 295 295 295 295 294 294 295 296 297 297 298 299 298 299 299 299 299 300 301 302 302 303 305 303 302 302 301 301 300 300 300 300 301 301 301 301 300
284 284 285 285 286 286 287 288 288 289 290 290 291 290 290 290 290 290 290 290 291 292 293 295 295 296 296 296 295 295 296 296 295 295 295 295 294 295 295 296 297 297 298 299 298 299 299 300 300 300 301 302 301 303 304 303 302 301 301 300 300 300 300 301 301 301 301 300 300
284 284 284 285 285 286 286 287 288 289 289 290 290 290 290 290 290 290 290 290 290 291 292 294 295 295 296 296 295 295 295 295 295 295 295 295 295 295 295 296 296 297 298 299 299 299 300 300 300 300 301 302 302 303 303 302 302 301 301 300 301 301 301 301 301 301 300 300 300
284 284 284 285 285 286 286 287 288 288 289 289 289 290 290 290 290 290 290 290 290 290 291 292 294 295 295 296 295 295 295 295 295 295 295 296 295 295 295 296 296 297 298 298 299 300 300 301 300 300 300 302 302 303 303 302 301 301 301 301 301 301 301 300 300 300 300 300 300
284 284 284 285 285 286 287 287 287 288 288 288 289 289 289 289 289 290 290 290 290 290 290 291 293 294 295 296 295 295 295 295 295 295 295 295 295 295 295 295 296 296 297 298 299 300 300 300 299 299 300 301 303 303 303 302 302 301 300 300 300 300 301 300 300 300 300 299 300
284 284 285 285 285 285 286 286 286 287 287 288 288 288 289 289 289 289 289 289 290 290 290 290 292 294 295 295 295 295 295 295 294 294 295 295 295 294 294 294 295 296 297 298 299 300 300 298 298 299 300 301 303 303 303 302 301 301 300 300 300 300 300 299 300 300 300 300 300
284 284 285 285 285 285 285 285 285 286 286 287 287 288 288 288 289 289 289 289 289 289 289 290 291 293 294 295 295 295 295 295 294 294 294 294 294 294 294 294 294 295 296 298 299 301 301 300 300 300 301 301 302 303 303 302 301 301 300 300 299 299 299 299 299 299 299 299 299
284 284 284 284 284 284 284 284 285 285 286 286 287 287 287 288 288 288 289 289 289 289 289 290 291 292 294 295 295 295 295 295 295 295 294 294 294 294 294 294 294 295 296 297 299 301 302 302 301 301 301 301 302 302 302 301 301 300 300 299 299 299 298 298 298 298 298 298 299
284 284 284 284 284 284 284 284 284 285 285 286 286 286 287 287 288 288 288 288 289 289 289 289 290 292 294 295 295 295 295 295 295 295 295 294 294 294 293 293 294 294 295 297 299 301 302 302 302 302 302 301 301 302 302 301 300 300 299 299 298 298 298 297 298 298 298 298 299
284 284 283 283 283 283 283 284 284 284 284 285 286 286 287 287 287 287 288 288 288 289 289 289 290 291 293 294 294 294 294 294 294 295 295 295 294 294 293 293 294 294 296 298 299 300 302 303 302 302 303 302 302 302 301 301 300 299 299 298 298 298 297 297 297 297 298 298 299
284 284 283 283 283 283 283 283 283 284 284 285 285 286 286 286 287 287 287 288 288 288 288 289 290 291 291 293 294 294 294 294 294 294 295 295 294 294 294 294 294 295 296 298 299 300 301 302 302 303 303 303 302 301 301 300 300 299 298 298 298 297 297 297 297 297 297 298 298
285 284 283 283 283 283 283 283 283 284 284 285 285 285 286 286 286 286 287 287 287 288 288 289 289 290 290 291 293 294 294 294 294 294 294 294 294 294 294 294 294 295 296 298 299 300 300 301 302 302 303 304 302 301 301 300 299 298 298 298 297 297 297 297 297 297 298 298 298
285 284 283 283 282 282 283 283 283 284 284 284 284 285 285 285 286 286 287 287 288 288 289 289 289 289 289 290 292 293 293 293 294 294 293 294 294 294 294 294 294 295 296 298 299 299 300 301 301 302 303 304 303 301 300 299 299 298 298 297 297 297 297 297 297 297 298 299 297
283 283 283 283 282 282 283 283 283 283 284 284 284 284 285 285 285 286 287 288 288 288 288 288 288 288 289 290 291 292 292 293 293 293 293 293 293 293 293 294 294 295 296 298 298 300 300 301 301 302 303 304 302 301 299 299 299 298 297 296 295 295 296 297 297 297 298 299 298
282 282 283 283 282 282 282 283 283 283 283 283 283 284 284 285 285 286 287 287 288 288 288 288 288 288 289 289 290 291 292 292 293 293 294 294 293 293 293 294 294 295 296 297 298 299 300 301 302 302 303 304 302 300 299 299 298 297 297 296 294 294 295 295 296 296 297 299 298
282 282 282 283 282 282 282 282 282 282 283 283 283 284 284 284 285 286 286 287 288 288 288 288 288 288 289 289 290 291 291 292 293 293 293 293 293 293 293 293 293 295 296 297 298 299 300 301 302 302 303 304 301 299 298 298 297 296 295 294 294 294 295 296 296 296 297 299 299
282 282 282 282 282 282 282 282 282 282 282 282 283 283 284 284 285 285 286 287 288 288 288 288 288 289 289 289 290 291 291 292 292 292 293 293 293 293 293 293 293 294 296 297 298 299 300 301 302 303 303 304 300 298 297 297 296 295 294 294 293 294 294 295 296 296 297 298 299
281 282 282 282 282 282 282 282 282 282 282 282 282 283 283 284 285 285 286 287 288 288 288 288 288 288 289 289 290 291 291 292 292 292 293 293 293 293 292 292 293 294 296 297 298 299 300 301 302 303 303 302 299 297 296 296 295 295 294 294 293 294 294 294 295 296 296 298 299
281 281 282 282 282 282 282 282 282 282 282 282 282 282 283 283 284 285 286 287 287 287 287 288 288 288 288 288 289 290 291 291 292 292 292 293 293 293 292 292 292 293 295 297 298 299 300 301 302 303 303 301 297 296 295 295 295 295 294 294 293 294 295 295 295 296 296 298 299
281 281 281 281 281 282 282 282 282 282 282 282 282 282 283 283 284 285 286 287 287 287 287 287 288 288 288 289 289 290 291 291 292 292 292 292 293 293 292 291 292 293 294 296 297 298 299 300 302 303 302 299 296 295 295 295 294 294 294 294 294 295 295 295 295 296 297 298 299
281 281 281 281 281 281 282 282 282 282 282 282 282 282 283 283 284 285 286 287 287 287 287 287 288 288 288 289 289 290 291 291 292 292 292 292 293 293 293 292 291 292 294 296 297 298 299 300 302 303 302 298 296 295 295 295 294 293 293 293 294 294 295 295 296 296 297 298 299
281 281 281 281 281 281 281 281 281 281 282 282 282 282 283 283 284 285 286 287 287 288 288 288 288 288 289 290 289 290 290 291 291 292 292 293 293 294 294 292 292 292 294 295 296 297 299 300 302 302 302 297 295 295 295 294 294 293 293 293 294 294 294 295 295 296 296 297 299
280 280 280 281 281 281 281 281 281 281 281 282 282 282 283 284 285 285 286 287 287 287 288 288 288 289 289 290 290 290 290 291 291 291 292 293 293 294 294 293 292 292 293 295 296 297 299 300 301 302 302 297 295 295 295 294 293 293 293 293 293 294 294 294 295 295 296 296 297
Wind_Speed
9 8 8 7 7 6 5 4 5 5 5 5 5 5 5 5 5 4 4 3 3 3 3 3 3 3 4 6 5 2 0 0 1 1 1 2 1 0 1 1 2 2 3 3 3 2 2 2 2 0 0 1 1 1 1 1 1 2 3 3 2 2 3 3 3 2 2 2 2
10 10 9 9 8 7 5 5 5 5 5 4 5 5 5 5 5 5 4 4 4 3 3 3 3 3 4 5 5 3 2 0 1 1 0 1 1 1 1 2 3 3 3 3 4 3 3 2 1 0 1 0 1 0 1 1 1 2 3 4 3 2 2 3 2 2 2 1 2
10 10 10 9 9 8 6 5 5 5 5 4 4 5 5 5 5 4 5 4 4 4 3 4 4 4 4 4 4 4 3 1 1 1 1 1 2 1 1 2 3 4 4 4 4 4 3 2 1 1 1 1 0 0 1 2 1 2 3 3 2 2 2 2 1 1 1 1 2
10 10 10 10 11 10 9 7 7 7 6 5 4 4 4 4 4 4 4 5 4 4 4 4 4 4 4 4 4 3 3 2 1 1 2 1 1 1 1 1 3 4 4 4 5 5 4 3 2 1 2 1 1 1 1 2 2 2 2 2 2 2 2 1 1 1 1 1 1
10 9 9 9 11 11 10 9 9 8 6 5 4 4 4 4 4 4 5 5 5 5 5 5 4 4 4 4 4 3 3 2 1 1 1 1 1 1 1 2 3 4 4 4 5 5 4 3 2 1 2 2 1 1 1 2 2 3 3 2 2 2 2 1 1 1 1 1 1
10 10 10 9 11 11 10 10 10 9 7 5 5 5 5 4 5 5 5 6 6 6 6 6 5 5 5 5 4 3 3 2 2 1 1 1 0 1 2 3 3 4 4 5 6 5 4 3 2 1 2 2 1 1 1 2 3 3 3 2 2 2 1 1 1 1 1 1 0
9 10 10 10 11 11 11 11 10 9 8 6 6 6 6 5 6 6 7 6 6 6 6 6 5 5 5 5 4 4 3 1 1 1 1 1 2 2 3 4 4 5 5 5 6 5 4 3 2 1 1 2 1 2 2 3 4 4 3 3 2 2 1 1 1 1 2 2 1
9 10 10 10 10 11 12 12 11 10 8 7 7 7 7 7 7 7 7 6 6 6 5 5 5 5 5 5 5 4 3 2 1 1 2 2 3 4 4 5 5 6 6 6 6 5 4 2 1 1 1 1 2 2 3 4 4 4 4 3 3 2 2 2 1 1 2 2 2
9 9 9 9 10 11 12 12 12 11 10 9 9 8 8 7 7 6 6 5 6 6 5 5 5 6 6 6 5 4 3 2 2 2 2 2 3 3 4 5 6 7 7 6 6 5 3 2 1 1 1 1 2 2 4 5 5 4 3 3 2 2 2 1 1 1 2 1 2
10 10 10 9 10 10 11 12 11 11 11 10 10 10 9 9 8 6 5 5 5 6 6 5 5 5 5 4 4 3 2 2 1 1 1 0 1 2 3 4 6 7 7 6 6 4 3 2 2 2 2 2 2 3 4 5 5 4 3 2 1 2 3 3 1 2 2 1 1
11 10 10 9 9 10 10 11 11 10 10 10 11 11 10 10 8 7 5 5 5 6 7 6 5 4 4 3 2 2 1 1 0 1 1 1 1 2 3 4 6 7 7 7 6 4 3 2 2 2 2 2 3 4 5 6 5 4 3 2 2 2 3 3 1 2 2 1 2
10 10 10 9 9 9 9 9 9 10 10 11 11 11 10 9 8 7 6 5 5 6 6 5 4 3 3 2 1 1 2 2 1 0 0 1 2 2 3 5 6 7 8 8 6 5 3 2 2 3 3 3 4 4 5 6 5 5 4 3 3 3 4 3 0 1 1 2 3
10 10 10 10 9 9 8 8 8 9 10 11 11 11 10 10 9 8 7 6 6 6 5 5 3 3 2 2 1 1 0 1 1 1 1 2 2 3 4 5 7 7 8 7 6 5 4 2 2 3 4 4 4 4 5 6 6 6 5 4 4 4 4 3 0 1 1 3 3
10 10 10 10 10 9 8 8 7 8 9 11 11 10 10 10 10 9 7 7 6 6 5 4 3 3 3 3 2 2 1 1 1 1 2 2 3 4 5 5 7 7 7 6 5 5 4 2 2 3 4 5 4 3 5 6 6 6 5 5 4 4 4 3 1 1 2 3 3
10 10 10 10 10 9 8 7 6 7 8 9 10 10 10 9 10 9 8 7 7 6 5 4 4 3 3 3 3 3 2 2 1 2 3 3 4 4 5 6 7 7 7 6 5 5 4 3 2 3 3 4 3 3 5 5 6 6 5 5 5 5 5 3 1 1 2 3 3
10 10 10 10 10 9 9 7 6 6 7 8 9 10 10 9 9 9 9 8 7 6 5 5 4 4 3 3 3 3 2 2 2 3 3 4 5 5 6 6 6 7 6 6 5 4 3 2 2 3 3 4 3 3 4 5 6 6 5 5 5 5 5 3 2 2 2 3 3
10 10 10 10 10 10 9 9 7 6 7 8 9 9 9 9 9 9 10 10 8 7 6 6 5 4 4 3 3 3 3 3 3 4 4 5 5 5 5 6 6 6 6 6 5 4 4 3 3 3 4 4 4 4 4 5 6 6 6 5 5 5 5 4 2 2 3 3 4
10 10 10 10 10 10 10 10 9 8 7 7 8 9 9 9 10 10 10 10 9 9 8 8 6 5 5 4 3 3 3 4 4 4 4 5 5 5 5 6 6 6 6 5 5 5 5 4 4 4 4 4 4 4 4 6 7 7 6 6 6 5 5 4 3 3 3 4 3
10 10 10 10 11 11 11 11 10 9 8 7 7 8 9 10 11 11 10 11 10 10 10 9 7 6 6 5 4 4 4 4 5 5 5 5 4 5 6 6 6 6 5 5 5 6 6 5 5 5 4 4 4 4 4 6 7 7 7 6 6 5 5 4 3 3 4 4 3
10 10 10 10 11 11 11 11 10 9 8 7 7 7 9 10 11 11 12 12 12 11 11 10 8 7 6 6 5 4 4 4 4 5 5 5 5 5 6 6 6 6 5 5 6 6 7 7 6 5 5 5 5 4 4 6 7 7 7 6 6 5 5 5 4 4 4 4 3
10 10 10 10 10 10 10 10 10 10 9 8 7 7 8 9 10 11 12 12 12 12 11 10 9 8 7 6 6 5 4 4 4 5 5 5 5 5 5 6 6 6 6 5 6 7 7 7 6 5 5 6 5 4 4 6 6 7 7 6 6 6 6 5 5 5 4 4 2
10 10 10 10 10 10 10 10 10 10 9 8 7 7 7 8 10 11 12 12 12 12 11 10 10 9 8 7 6 6 5 4 4 5 5 5 5 5 5 6 6 6 6 6 6 7 8 8 7 6 5 6 5 4 5 6 6 6 6 6 6 6 6 6 5 5 4 3 2
11 10 10 10 10 10 10 9 9 9 10 10 9 8 8 8 9 10 11 12 12 11 11 10 9 9 8 7 7 6 5 5 5 5 5 5 5 4 4 5 6 7 7 6 6 7 7 7 6 5 5 5 5 5 6 7 6 6 6 7 6 6 6 6 6 5 4 3 1
11 11 10 9 9 9 9 9 9 10 10 11 10 10 9 8 9 10 11 11 11 11 11 10 10 9 8 7 7 6 6 6 6 6 6 6 5 5 4 5 6 6 6 6 6 6 5 5 5 4 5 5 5 4 6 7 7 7 7 7 6 6 6 6 6 5 4 3 1
11 11 10 9 9 9 9 9 9 10 11 11 11 11 10 9 9 10 10 11 11 11 11 11 11 9 8 7 6 6 6 6 6 6 6 6 5 5 5 5 5 6 6 6 9 8 8 7 6 5 4 4 4 4 5 7 7 7 7 7 7 6 6 6 6 5 4 2 1
11 10 10 9 9 9 9 10 10 10 11 11 12 12 11 10 9 10 11 12 12 12 12 11 10 9 8 7 6 6 6 5 6 6 6 6 6 5 5 5 5 5 6 8 10 10 9 10 10 8 5 4 4 4 4 6 7 8 8 8 7 6 6 6 6 5 4 2 1
10 9 9 9 9 10 10 10 10 10 11 11 12 12 12 11 9 9 10 11 12 12 12 11 10 9 9 7 7 6 6 5 5 6 6 6 6 6 5 5 5 5 7 9 11 11 10 11 12 11 8 4 3 3 4 5 6 7 7 8 7 6 6 6 6 6 4 3 2
9 8 8 9 10 11 11 11 11 11 11 12 12 12 12 12 11 10 10 10 11 11 11 10 9 8 7 6 6 6 6 6 5 5 6 6 6 6 6 5 5 6 8 11 13 12 11 10 12 12 10 6 4 3 4 5 5 6 6 6 6 6 6 5 6 6 5 4 3
9 9 9 10 11 12 12 12 11 11 11 12 12 13 13 13 12 11 10 10 11 11 10 9 8 8 7 7 6 6 6 6 5 5 5 6 6 6 6 5 5 7 9 13 13 13 12 11 12 12 12 9 4 3 3 4 5 5 5 5 5 5 5 5 5 5 5 5 3
11 11 10 11 12 12 12 12 12 12 11 11 12 13 13 13 12 11 10 10 10 10 9 9 9 9 10 9 8 7 6 6 5 5 5 6 6 6 6 6 5 6 9 13 14 13 13 12 12 13 13 11 6 4 3 4 4 5 5 5 5 5 5 5 5 5 5 5 4
12 11 12 12 12 13 13 13 12 12 12 11 12 13 13 13 12 11 9 9 9 10 10 10 11 11 11 11 9 8 7 6 6 6 6 6 7 7 6 6 6 7 9 12 13 14 13 13 13 14 14 12 8 5 4 4 4 5 5 5 6 6 6 6 6 6 6 6 5
11 11 12 13 13 13 13 13 12 12 12 12 12 13 13 13 12 11 9 8 9 10 10 11 11 12 12 11 10 8 7 7 7 6 6 6 7 7 6 6 6 7 9 12 14 14 14 14 14 14 14 13 8 6 5 5 5 5 5 6 7 7 6 5 5 5 6 7 6
10 11 13 14 14 13 13 13 13 13 12 12 12 13 13 13 12 11 10 9 9 9 10 10 10 11 11 11 10 9 8 8 8 8 8 7 7 7 7 6 6 7 10 13 14 14 14 14 14 14 15 14 8 6 6 6 5 5 5 6 6 6 6 5 4 4 5 6 7
11 12 14 14 14 13 13 13 13 13 13 13 12 12 12 12 12 12 11 9 8 8 9 9 10 10 10 11 10 10 9 8 8 8 8 7 7 7 7 6 5 7 10 13 14 15 15 14 14 15 15 13 7 6 6 7 6 5 6 6 6 6 6 5 4 4 5 6 7
11 13 14 14 14 13 13 13 13 13 13 13 13 12 12 12 12 12 11 11 10 9 9 9 9 9 10 10 10 10 10 9 8 8 8 7 7 7 7 7 5 8 11 14 15 15 15 14 14 15 14 11 6 5 6 7 6 6 6 7 6 6 5 4 4 4 5 6 7
12 13 15 15 15 14 14 14 14 14 14 13 13 13 12 12 12 12 11 11 10 9 9 9 9 9 9 10 10 10 9 8 8 8 8 8 8 8 7 7 6 8 11 14 15 15 15 15 14 14 13 9 5 5 5 6 6 6 7 7 6 6 6 4 3 3 4 6 7
12 13 15 16 15 15 14 14 15 15 14 14 13 13 13 13 12 12 11 11 10 9 9 9 9 9 9 10 10 10 9 8 8 8 8 9 8 8 7 6 6 8 11 13 15 15 15 15 14 13 12 7 5 5 5 5 5 6 6 6 6 6 6 4 3 3 5 6 8
12 13 15 16 16 15 15 14 15 15 15 14 14 13 12 12 12 12 11 11 9 9 9 9 9 9 9 10 10 11 10 9 8 8 9 9 9 8 7 6 6 7 9 12 14 15 15 15 14 12 10 7 7 6 5 5 5 5 5 5 5 5 5 3 3 3 5 7 9
12 13 14 15 16 15 15 15 15 15 15 15 14 13 13 12 11 11 11 10 9 9 9 9 9 9 10 10 11 11 10 9 8 9 9 9 9 9 8 7 6 7 8 11 13 14 15 15 13 11 10 8 7 6 6 5 5 5 5 5 5 5 4 3 2 3 4 7 11
13 13 14 15 15 15 15 14 14 14 14 14 15 14 13 13 12 11 11 10 9 9 9 10 10 10 10 10 11 11 10 9 8 8 9 9 10 10 9 7 7 7 8 11 13 14 14 14 14 11 10 8 7 6 5 5 6 6 6 5 5 4 4 3 2 3 4 6 10
12 13 14 15 15 15 15 14 14 13 13 14 14 14 13 13 12 11 10 10 10 10 9 9 10 10 10 10 10 10 10 10 8 8 9 10 10 10 9 8 7 7 8 10 12 13 14 14 14 12 11 9 7 6 6 5 6 6 6 6 5 4 3 3 3 3 4 5 6
Wind_Direction
334 332 329 327 328 326 322 319 319 319 319 319 320 320 318 316 312 308 306 305 301 300 300 300 299 302 307 309 311 317 30 69 307 283 197 152 155 191 262 281 288 294 298 299 297 291 273 251 237 220 48 357 259 218 188 142 129 121 117 113 104 88 75 68 50 19 356 358 17
334 332 330 328 328 324 318 312 314 316 317 316 317 315 314 311 308 306 306 306 303 300 299 299 301 305 308 308 312 317 329 69 331 309 269 176 183 220 275 291 290 287 286 288 290 287 275 254 229 159 96 356 292 268 102 84 109 121 120 118 112 96 77 63 38 3 345 359 18
334 333 332 330 328 325 319 312 309 309 310 310 313 314 313 311 307 305 304 303 301 301 301 301 303 304 304 303 307 313 320 332 310 281 259 225 203 205 238 278 284 282 280 280 282 278 267 252 219 171 145 140 188 73 64 51 57 95 109 110 104 90 75 57 17 347 340 24 28
334 333 332 331 329 326 322 316 310 307 307 308 310 312 312 311 308 305 303 303 304 304 303 301 300 299 297 295 292 294 297 301 293 287 284 280 256 235 238 265 277 279 279 279 278 271 259 242 220 182 155 150 160 138 99 77 71 81 93 95 87 81 75 47 2 337 340 47 43
334 333 332 330 328 326 323 319 313 309 305 304 307 310 313 312 311 310 309 310 309 305 301 297 293 290 289 286 280 275 266 253 251 258 274 286 310 316 310 295 284 282 281 280 278 271 260 244 226 187 155 155 163 157 134 116 104 100 98 93 84 74 63 21 343 326 326 32 67
333 331 330 329 328 327 325 322 317 311 304 299 301 304 308 311 312 312 311 309 305 300 297 294 290 287 284 281 276 269 257 233 219 217 219 221 304 332 327 313 301 294 291 286 281 276 265 250 230 191 159 157 165 176 166 140 125 121 119 115 102 88 68 334 310 309 314 327 339
329 329 329 329 329 328 327 325 321 315 308 299 297 298 300 303 305 305 304 303 302 300 298 296 295 293 289 282 275 269 263 253 244 246 262 293 319 322 319 313 307 302 297 291 285 277 264 248 226 191 165 167 175 183 172 146 136 136 136 131 120 121 138 222 272 297 315 321 351
327 328 328 328 328 328 328 327 324 321 315 306 300 297 296 296 298 299 300 302 302 300 298 298 301 301 297 285 273 262 252 252 280 308 321 328 322 317 311 307 302 299 296 292 285 275 260 244 219 178 171 183 183 174 158 141 139 139 138 130 134 146 160 187 249 305 323 329 8
327 327 327 327 328 329 329 328 326 323 319 313 308 303 300 298 297 297 299 302 300 300 299 298 301 302 300 290 275 258 242 234 255 286 309 319 312 308 305 301 297 295 293 293 287 277 261 237 221 190 187 201 195 168 150 140 139 136 128 117 143 152 149 135 20 333 323 331 23
326 326 326 327 328 329 329 329 327 325 322 319 316 313 308 305 302 299 298 299 301 301 300 297 301 302 299 292 285 274 257 232 209 198 208 286 293 295 296 295 292 290 290 291 292 285 268 234 227 217 214 216 210 177 155 145 140 129 117 111 156 138 116 92 37 322 302 317 53
324 324 323 323 325 327 329 330 329 328 327 324 323 321 316 311 304 298 295 299 303 302 298 297 299 298 294 291 303 323 342 10 148 165 178 216 258 277 285 287 285 284 285 288 292 290 277 238 231 230 230 229 224 192 165 151 140 130 125 139 157 129 108 96 61 289 283 94 78
322 321 321 320 322 325 329 331 330 329 328 326 326 324 321 314 304 298 295 300 304 303 301 299 295 288 282 279 302 339 2 8 3 354 287 275 280 282 283 281 279 279 280 283 288 288 279 247 234 236 239 240 234 204 172 154 143 139 143 164 163 138 115 107 121 286 294 86 83
320 320 320 321 322 325 328 330 329 328 328 327 326 325 323 318 310 304 299 298 302 304 304 299 286 270 259 254 259 276 346 3 356 330 301 282 281 280 279 276 273 272 273 276 280 282 278 256 231 233 242 249 238 204 170 154 146 146 154 171 161 138 118 110 20 320 3 76 80
319 320 321 321 323 324 326 328 328 327 327 326 326 325 324 322 317 311 304 295 296 299 300 293 275 252 235 227 221 214 212 217 242 267 271 269 267 268 268 267 265 265 266 269 272 274 273 257 231 232 242 255 241 196 167 157 149 150 157 166 153 133 120 114 61 4 39 75 77
320 320 321 322 323 324 324 326 326 325 325 325 325 325 325 324 322 318 310 298 294 294 294 288 270 252 234 221 212 207 206 213 239 263 271 270 265 260 258 258 259 261 263 265 265 267 265 249 232 235 247 260 251 196 168 161 150 151 155 157 145 132 122 119 86 48 61 81 80
320 321 322 323 324 324 323 324 323 323 324 324 324 325 325 325 324 322 317 306 299 295 293 286 274 262 247 230 220 220 227 243 255 264 269 271 267 262 258 257 260 262 265 267 266 264 260 248 236 238 249 262 262 215 177 160 148 147 149 147 139 130 123 120 96 69 71 83 82
320 320 321 323 323 323 322 321 320 320 321 322 324 325 325 326 326 325 322 316 308 300 294 286 276 265 254 240 231 236 253 267 266 263 263 265 267 267 266 266 266 267 268 269 268 266 263 257 249 247 251 259 263 234 193 161 147 146 146 142 133 126 122 119 103 85 79 83 79
319 319 320 321 322 322 321 320 318 317 318 320 322 324 325 325 325 324 323 321 314 306 297 289 279 267 257 249 243 248 261 269 267 261 256 256 262 268 272 273 272 271 270 270 269 268 266 262 258 256 255 258 262 241 205 166 151 148 148 141 132 127 123 121 110 98 91 88 80
318 319 319 320 320 320 319 318 316 314 314 316 320 322 323 324 323 322 322 322 318 312 305 295 284 273 262 255 250 250 256 261 263 260 255 249 254 263 270 274 274 273 271 267 265 264 263 259 257 257 258 261 261 242 206 168 154 151 149 143 136 133 133 133 122 109 100 95 86
317 317 317 317 317 317 316 316 314 312 310 311 316 320 321 322 322 321 321 320 319 316 310 300 290 279 268 258 252 249 248 252 260 261 258 250 249 256 264 270 273 274 271 263 255 255 257 256 252 253 256 259 257 235 193 161 154 151 149 143 139 142 145 142 126 113 103 98 93
316 315 315 315 315 314 313 313 313 312 310 309 312 316 319 321 321 320 319 317 317 315 312 304 293 282 272 262 255 249 246 246 253 258 259 253 248 252 259 268 273 275 272 264 253 249 248 246 242 244 250 253 249 223 176 153 152 151 148 142 143 148 151 142 127 116 107 101 103
315 315 314 314 312 311 311 312 313 313 313 311 312 314 317 319 319 318 317 315 315 315 313 307 297 285 273 263 256 251 247 245 248 252 256 254 249 251 258 268 274 277 276 271 260 250 242 233 228 232 242 249 238 206 168 152 152 150 146 139 143 148 149 140 130 122 115 112 123
315 314 313 312 311 311 312 313 315 316 317 316 315 315 316 317 317 317 316 315 314 314 313 311 302 290 275 262 255 251 249 247 247 249 251 250 247 249 257 268 273 275 275 273 266 252 235 219 213 221 235 245 233 199 167 155 155 150 143 137 140 143 143 139 133 130 130 134 145
314 314 313 312 313 313 315 317 319 320 320 320 318 317 316 317 317 317 316 315 313 312 312 312 307 296 281 265 256 251 250 249 250 251 249 245 241 242 250 263 270 273 273 272 269 253 229 200 200 213 231 241 235 201 170 159 158 151 143 137 138 138 137 135 132 134 140 152 144
314 312 312 312 315 318 320 323 323 323 321 320 319 317 316 317 317 317 317 315 313 312 311 310 307 299 288 271 258 251 249 250 252 252 249 243 237 235 240 255 264 268 269 270 269 255 231 199 197 209 227 236 234 208 177 164 161 155 147 140 140 137 134 131 130 134 145 165 138
313 312 312 314 318 322 325 325 323 321 320 319 319 318 317 316 316 316 315 315 314 313 311 310 307 302 293 278 262 252 248 248 250 250 247 242 235 231 233 244 255 261 264 265 268 259 237 207 205 209 220 228 226 206 182 170 165 158 151 144 143 142 139 135 135 140 154 181 153
312 312 314 318 324 326 326 324 322 320 319 319 319 317 316 315 314 314 313 313 313 313 312 310 307 304 298 284 268 257 250 247 248 248 246 241 235 230 229 234 245 253 258 261 265 260 245 216 212 213 217 221 215 200 184 173 165 159 151 145 145 145 145 142 142 149 163 191 178
312 315 320 325 326 325 324 322 321 320 318 318 318 317 316 314 313 312 311 311 312 312 312 311 310 307 302 289 271 259 251 247 248 249 247 243 237 231 227 228 236 246 252 255 259 259 251 231 221 218 217 215 208 189 176 168 163 157 150 144 145 147 149 148 148 156 168 188 179
317 322 326 328 325 323 322 321 320 319 318 317 316 316 315 314 313 311 309 309 310 311 311 310 311 310 305 295 278 263 252 246 245 247 248 246 241 235 230 227 233 243 248 250 253 254 252 243 233 226 221 213 202 179 169 166 161 155 148 143 145 150 153 153 155 162 171 181 170
325 328 329 326 323 321 320 319 319 318 316 315 315 315 314 313 312 311 309 307 308 307 307 308 309 308 306 300 286 271 258 247 241 240 242 245 244 240 236 231 230 239 245 246 247 247 247 244 239 235 228 215 199 177 163 163 158 152 147 142 146 151 158 162 167 170 172 174 160
328 328 326 323 321 319 318 318 317 317 316 315 314 313 313 312 311 310 307 305 303 303 304 305 305 305 304 301 291 278 263 250 242 237 237 242 247 248 245 238 232 237 243 245 244 243 241 239 238 237 233 220 200 178 162 161 159 153 147 143 149 157 166 176 178 177 173 167 156
327 326 324 321 319 318 317 316 316 316 315 314 312 312 311 310 309 308 306 303 301 302 303 303 304 304 303 303 296 283 267 252 243 237 235 237 243 246 247 243 236 237 241 243 243 241 239 236 235 237 235 224 202 177 162 161 160 154 147 143 151 162 173 182 178 176 172 165 157
324 323 322 320 319 317 316 315 315 315 314 312 311 310 310 309 308 307 306 303 301 300 300 300 301 301 302 302 298 289 274 256 246 241 239 238 240 242 244 243 240 239 240 242 242 242 240 236 234 236 235 224 201 174 162 160 159 153 148 145 155 168 176 176 167 169 171 166 158
322 321 321 319 318 316 315 314 314 313 312 311 310 309 309 308 308 307 306 303 300 297 296 295 296 296 297 298 296 290 279 264 251 243 238 235 236 238 240 240 239 239 240 241 241 241 241 240 236 235 233 222 197 169 158 155 153 148 146 147 160 174 183 179 165 165 169 169 161
321 321 320 318 317 315 314 314 313 313 312 310 309 308 308 307 306 305 304 303 300 296 293 292 292 292 294 295 294 290 282 268 254 244 238 234 233 235 237 236 236 239 240 241 242 242 244 245 240 235 229 219 188 160 154 151 147 144 144 147 163 179 192 193 174 168 171 173 165
321 320 319 317 316 315 314 314 314 313 312 310 309 308 308 306 305 304 302 302 300 296 292 291 291 291 292 294 295 292 285 270 255 244 238 234 232 233 233 232 233 237 240 243 244 246 248 251 245 234 222 206 172 153 154 151 147 144 145 151 166 183 196 203 187 175 174 176 169
319 318 317 316 315 314 313 313 313 312 311 310 309 308 307 305 304 303 302 302 299 295 292 290 290 290 291 293 294 293 287 274 256 244 238 235 233 232 230 228 228 234 239 243 246 249 252 256 250 234 214 182 157 151 155 152 147 145 148 155 170 187 197 202 189 178 176 176 169
318 317 316 314 313 312 312 312 312 311 310 309 308 306 305 303 302 301 301 301 297 295 293 290 288 287 288 290 291 290 286 275 258 245 238 236 234 230 227 224 224 230 237 243 247 251 255 259 253 234 207 162 152 152 156 152 146 145 149 158 175 189 196 193 180 173 172 171 166
317 316 314 313 311 311 310 310 310 309 309 308 306 305 303 302 300 299 298 298 296 294 292 289 287 285 286 288 289 289 286 277 260 246 237 235 233 229 225 221 221 227 235 241 246 251 256 260 255 231 197 152 152 155 157 151 146 146 151 161 177 188 190 178 166 162 163 164 162
315 314 312 311 309 309 308 307 307 306 306 305 304 302 301 299 297 297 297 297 295 294 291 288 285 283 284 286 287 288 286 279 262 246 237 233 233 229 225 220 219 224 233 239 245 250 255 258 254 229 191 148 154 156 155 150 147 151 157 168 178 182 179 162 152 149 152 156 159
313 312 310 309 308 307 306 305 304 303 302 300 299 299 298 298 297 297 298 297 296 295 292 288 284 282 281 282 284 286 285 282 266 248 236 231 231 229 226 219 215 220 229 238 244 249 253 254 252 228 192 152 157 157 154 150 150 155 163 171 178 177 168 152 143 140 144 150 155